sat.trackr.live / text

‹ back to catalog

2024-092H

NORAD 59780 · 2024-092H

PAYLOAD ACTIVE UNKNOWN

§ Identity

Operator
Country
CIS
Launch date
2024-05-16
Launch site
PLMSC
Launch vehicle
Mass (kg)
RCS (m²)

External: N2YO · Heavens-Above · Gunter

§ Orbital elements

Epoch: 2026-05-25T05:37:23.290176Z

Period
100.57 min
Inclination
98.6671°
Eccentricity
0.0011070
Mean motion
14.31836033 rev/d
Perigee alt
777.7 km
Apogee alt
793.5 km
Semi-major
7,163.7 km
B*
6.7707e-5
RAAN
264.2952°
Arg perigee
277.5689°
Mean anomaly
82.4236°
Rev number
10,561

§ Raw data

2024-092H1 59780U 24092H   26145.23429734  .00000136  00000+0  67707-4 0  99982 59780  98.6671 264.2952 0011070 277.5689  82.4236 14.31836033105611

JSON: /api/v1/satellites/59780 · /tle

For live sub-satellite position, see the globe view (requires WebGL).

§ Visibility from observer

Set your observer location to see the next 7 days of passes ≥ 10°. The values pass through the URL so the page stays shareable.

No JS? Fill the form by hand. The geolocation button needs JavaScript.